Showing default

OPS 0757 (TACSAT), 3691

Orbit data source: Space-Track

OPS 0757 (TACSAT), 3691 is a payload satellite owned by SAMSO (US) in GEO that was launched on Sun, 09 Feb 1969 UTC via a TITAN IIIC launch vehicle from the Air Force Eastern Test Range (AFETR). Payload-class satellites include a variety of spacecraft equipped with specific instruments for various scientific and technological missions. These include communications satellites like Starlink; space stations such as the ISS; scientific satellites like the Hubble; Earth observation satellites from companies like Planet Labs, Umbra, and HawkEye 360; GPS; miniature CubeSats for education and research; and military/defense satellites.

Not visible in the next 10 days
Identifier
3691, 1969-013A
Orbit
GEO
Last TLE update
13 hours ago
Origin
Manufacturer
Hughes
Mission
Non-operational Defense Communications
Bus & Motor
HS-308, Unknown motor
Mass
721 kg wet, ~650 kg dry
Launch date (UTC)
1969-02-09 (56 years ago)
Launch vehicle
TITAN IIIC
Launch site
Air Force Eastern Test Range (AFETR)
Object type
Payload
Rocket body
Debris
Shape & HBR
Cyl, 7.6 m
Radar Cross Section
19.792 m², Medium (>0.1 m² and < 1m²)

Expand to show TLE details & history

TLE from 13 hours ago
0 OPS 0757 (TACSAT)
1 03691U 69013A   25181.54203044 -.00000046  00000-0  00000-0 0  9998
2 03691   1.9559  76.3712 0018886 165.7097  36.4467  1.00397066110578
Epoch: 2025-06-30T13:00Z
TLE epoch observation values (Epoch: 2025-06-30T13:00:31.43Z)
Latitude
-0.76155°
Longitude
164.67932°
Altitude
35,686.925 km
Speed
3.081 km/s
True Right ascension
18h 34m 38s
True Declination
0° 45' 39"
Sunlit
Object was in daylight at epoch
Visualization orbit readout
Latitude
1.12235°
Longitude
-3.34834°
Altitude
35,803.709 km
Speed
3.072 km/s
Apparent Right ascension
06h 56m 02s
Apparent Declination
-4° 22' 08"
Sunlit
Object is in daylight
Visualization observer readout
Local Sidereal Time
13:23:34
Azimuth
271.055° WNW
Elevation
-8.077°
Doppler factor
1
Orbital elements
Apogee altitude
35,832.148 km
Perigee altitude
35,673.012 km
Semi-major axis
42,130.717 km
Eccentricity
0.00189
Inclination
1.9559°
RAAN
76.3712°
Arg. of periapsis
165.7097°
True anomaly
Unknown
Mean anomaly
36.4467°
Eccentric anomaly
Unknown
Mean motion
0.25098 °/min
Orbital period
1,434.36 mins
BSTAR
0
Loading historical data...
3691 neighbors
Loading maneuver chart data...
Loading SW <> Apogee altitude chart data...

OPS 0757 (TACSAT) Visibility

Observer location: undefined°, undefined°

OPS 0757 (TACSAT) is likely not visible in the next few days
Span
Click to sort rows by Start time (UTC) header in descending order
Start Az.
Max El. time (UTC)
Max El. Az.
Max El.
End time (UTC)
End Az.
|